OE-11280 Weather Reports


time (UTC)temp
C
wind
direction
speed
KPH
gust
KPH
rain 1hr
cm
rain 24hr
cm
rain mn
cm
humidity
%
barometer
mb
20260903112520 24 212 3.2 8.0 0.00 0.08 0.00 38 1017.5
20260903111133 23 214 1.6 4.8 0.00 0.08 0.00 49 1017.7
20260903110520 22 234 1.6 6.4 0.00 0.08 0.00 47 1017.9
20260903105520 22 159 3.2 6.4 0.00 0.08 0.00 43 1018.1
20260903104133 23 139 4.8 8.0 0.00 0.08 0.00 43 1018.5
20260903103520 23 141 4.8 12.9 0.00 0.08 0.00 44 1018.5
20260903102520 22 139 6.4 14.5 0.00 0.08 0.00 48 1018.8
20260903101133 22 142 4.8 11.3 0.00 0.08 0.00 52 1018.9
20260903100520 22 116 6.4 14.5 0.00 0.08 0.00 55 1019.1
20260903095520 21 126 8.0 12.9 0.00 0.08 0.00 57 1019.3
20260903094132 21 141 3.2 9.7 0.00 0.08 0.00 58 1019.6
20260903093520 20 97 3.2 9.7 0.00 0.08 0.00 59 1019.9
20260903091133 18 168 3.2 8.0 0.00 0.08 0.00 61 1021.0
20260903090520 18 199 1.6 6.4 0.00 0.08 0.00 65 1021.2
20260903085520 17 283 1.6 6.4 0.00 0.08 0.00 64 1021.4
20260903084132 17 210 3.2 8.0 0.00 0.08 0.00 69 1021.8
20260903083520 17 200 1.6 6.4 0.00 0.08 0.00 72 1021.9
20260903082520 16 89 3.2 8.0 0.00 0.08 0.00 74 1022.0
20260903081133 16 86 3.2 6.4 0.00 0.08 0.00 76 1022.2
20260903080520 15 332 1.6 6.4 0.00 0.08 0.00 77 1022.3
20260903075520 15 298 3.2 8.0 0.00 0.08 0.00 78 1022.3
20260903074133 15 280 3.2 8.0 0.00 0.08 0.00 80 1022.5
20260903073519 15 200 1.6 6.4 0.00 0.08 0.00 82 1022.7
20260903072519 15 272 1.6 6.4 0.00 0.08 0.00 81 1022.9
20260903071133 14 295 3.2 6.4 0.00 0.08 0.00 81 1023.0
20260903070520 15 342 1.6 4.8 0.00 0.08 0.00 82 1023.0
20260903065520 13 248 1.6 6.4 0.00 0.08 0.00 84 1023.3
20260903064132 13 280 1.6 4.8 0.00 0.08 0.00 87 1023.5
20260903063519 13 169 1.6 6.4 0.00 0.08 0.00 87 1023.6
20260903062520 13 312 3.2 4.8 0.00 0.08 0.00 89 1023.5
20260903061133 12 301 3.2 4.8 0.00 0.08 0.00 91 1023.6
20260903060520 12 336 1.6 4.8 0.00 0.08 0.00 91 1023.9
20260903055519 12 21 3.2 8.0 0.00 0.08 0.00 93 1023.8
20260903054132 12 323 0.0 4.8 0.00 0.08 0.00 94 1023.8
20260903053520 12 271 3.2 6.4 0.00 0.08 0.00 95 1023.7
20260903052520 11 282 4.8 8.0 0.00 0.08 0.00 95 1023.8
20260903051133 11 295 3.2 6.4 0.00 0.08 0.00 95 1023.7
20260903050519 12 282 3.2 6.4 0.00 0.08 0.00 94 1023.7
20260903045520 12 292 3.2 4.8 0.00 0.08 0.00 94 1023.6
20260903044132 12 240 3.2 6.4 0.00 0.08 0.00 94 1023.6
20260903043519 12 287 1.6 4.8 0.00 0.08 0.00 94 1023.6
20260903042520 12 258 3.2 6.4 0.00 0.08 0.00 94 1023.4
20260903041132 12 260 3.2 6.4 0.00 0.08 0.00 94 1023.5
20260903040520 12 301 1.6 3.2 0.00 0.08 0.00 94 1023.3
20260903035520 12 250 3.2 4.8 0.00 0.08 0.00 94 1023.3
20260903034519 12 293 1.6 6.4 0.00 0.08 0.00 94 1023.3
20260903033519 12 320 1.6 4.8 0.00 0.08 0.00 94 1023.2
20260903032520 12 278 3.2 6.4 0.00 0.08 0.00 94 1023.1
20260903031133 12 289 1.6 4.8 0.00 0.08 0.00 94 1023.0
20260903030520 13 298 1.6 4.8 0.00 0.08 0.00 94 1023.0
20260903025520 13 289 1.6 4.8 0.00 0.08 0.00 94 1023.0
20260903024520 13 272 1.6 3.2 0.00 0.08 0.00 94 1023.0
20260903023520 13 304 1.6 6.4 0.00 0.08 0.00 94 1023.1
20260903022520 13 334 3.2 6.4 0.00 0.08 0.00 94 1023.1
20260903021132 13 308 1.6 6.4 0.00 0.08 0.00 95 1023.0
20260903020520 13 277 1.6 8.0 0.00 0.08 0.00 94 1023.0
20260903015520 13 300 1.6 6.4 0.00 0.08 0.00 95 1023.0
20260903014132 13 297 3.2 6.4 0.00 0.08 0.00 94 1023.1
20260903013519 13 271 3.2 4.8 0.00 0.08 0.00 95 1023.0
20260903012519 13 272 1.6 3.2 0.00 0.08 0.00 95 1023.0
20260903011133 13 272 1.6 4.8 0.00 0.08 0.00 95 1023.1
20260903010520 13 272 3.2 6.4 0.00 0.08 0.00 94 1023.0
20260903005520 13 289 3.2 4.8 0.00 0.08 0.00 94 1022.8
20260903004133 14 260 3.2 6.4 0.00 0.08 0.00 94 1022.8
20260903003520 14 268 3.2 4.8 0.00 0.08 0.00 94 1022.8
20260903002520 14 253 1.6 6.4 0.00 0.08 0.00 94 1022.9
20260903001532 14 294 1.6 3.2 0.00 0.08 0.00 93 1022.8
20260903000519 14 289 1.6 4.8 0.00 0.08 0.00 93 1022.7
20260902235519 14 209 1.6 3.2 0.00 0.08 0.00 93 1022.7
20260902234133 14 208 1.6 6.4 0.00 0.08 0.00 93 1022.5
20260902233519 14 216 1.6 9.7 0.00 0.08 0.00 93 1022.6
20260902232519 14 323 0.0 11.3 0.00 0.08 0.00 93 1022.7
20260902231520 14 309 1.6 4.8 0.00 0.08 0.00 93 1022.6
20260902230519 14 164 1.6 6.4 0.00 0.08 0.00 93 1022.4
20260902225520 14 260 1.6 4.8 0.00 0.08 0.00 92 1022.5
20260902224133 15 316 1.6 6.4 0.00 0.08 0.00 93 1022.4
20260902223520 14 289 1.6 4.8 0.00 0.08 0.00 92 1022.5
20260902222520 15 267 3.2 4.8 0.00 0.08 0.00 91 1022.0
20260902221133 15 268 3.2 6.4 0.08 0.08 0.00 92 1022.0
20260902220519 15 336 1.6 4.8 0.08 0.08 0.08 90 1021.9
20260902215520 15 264 3.2 8.0 0.08 0.08 0.08 92 1021.8
20260902214133 15 85 3.2 11.3 0.08 0.08 0.08 91 1021.8
20260902213519 15 213 1.6 9.7 0.08 0.08 0.08 91 1021.7
20260902211133 15 300 8.0 24.1 0.08 0.08 0.08 90 1021.8
20260902210520 15 270 1.6 4.8 0.00 0.00 0.00 87 1021.3
20260902205520 15 239 1.6 4.8 0.00 0.00 0.00 86 1021.2
20260902204134 15 360 0.0 4.8 0.00 0.00 0.00 86 1021.2
20260902203519 15 270 3.2 4.8 0.00 0.00 0.00 86 1021.3
20260902202520 15 264 1.6 3.2 0.00 0.00 0.00 86 1021.3
20260902201133 16 278 1.6 4.8 0.00 0.00 0.00 86 1021.2
20260902200520 16 284 3.2 6.4 0.00 0.00 0.00 83 1021.1
20260902195520 16 252 3.2 4.8 0.00 0.00 0.00 83 1021.1
20260902194133 16 329 0.0 3.2 0.00 0.00 0.00 82 1021.0
20260902193520 16 306 3.2 6.4 0.00 0.00 0.00 83 1020.7
20260902192519 17 286 3.2 8.0 0.00 0.00 0.00 82 1020.5
20260902191133 17 286 1.6 8.0 0.00 0.00 0.00 81 1020.4
20260902190519 17 331 4.8 9.7 0.00 0.00 0.00 81 1020.3
20260902185520 17 359 3.2 6.4 0.00 0.00 0.00 80 1019.7
20260902184133 17 221 1.6 4.8 0.00 0.00 0.00 78 1019.5
20260902183520 18 319 4.8 12.9 0.00 0.00 0.00 78 1019.6
20260902182520 18 320 4.8 14.5 0.00 0.00 0.00 76 1019.3
20260902181133 18 152 1.6 6.4 0.00 0.00 0.00 75 1019.0
20260902180520 18 130 6.4 14.5 0.00 0.00 0.00 74 1018.9
20260902175520 19 116 6.4 16.1 0.00 0.00 0.00 74 1018.5
20260902174133 19 90 6.4 12.9 0.00 0.00 0.00 73 1018.3
20260902173519 20 91 8.0 20.9 0.00 0.00 0.00 69 1017.7
20260902172520 20 109 9.7 17.7 0.00 0.00 0.00 70 1017.5
20260902171133 20 106 11.3 19.3 0.00 0.00 0.00 68 1017.4
20260902170520 21 119 9.7 19.3 0.00 0.00 0.00 66 1017.2
20260902165520 21 128 9.7 17.7 0.00 0.00 0.00 63 1017.2
20260902164133 21 127 9.7 16.1 0.00 0.00 0.00 63 1017.0
20260902163520 21 114 16.1 24.1 0.00 0.00 0.00 63 1016.9
20260902162520 21 122 14.5 24.1 0.00 0.00 0.00 62 1016.8
20260902161133 22 105 12.9 22.5 0.00 0.00 0.00 60 1016.6
20260902160519 22 108 11.3 25.7 0.00 0.00 0.00 59 1016.6
20260902155520 22 108 12.9 20.9 0.00 0.00 0.00 58 1016.5
20260902154133 23 63 11.3 25.7 0.00 0.00 0.00 56 1016.3
20260902153520 23 74 16.1 30.6 0.00 0.00 0.00 56 1016.6
20260902152519 23 89 12.9 22.5 0.00 0.00 0.00 57 1016.5
20260902151133 22 97 12.9 24.1 0.00 0.00 0.00 58 1016.5
20260902150520 22 93 9.7 22.5 0.00 0.00 0.00 58 1016.5
20260902145520 22 110 14.5 25.7 0.00 0.00 0.00 58 1016.6
20260902144133 22 112 14.5 24.1 0.00 0.00 0.00 59 1016.7
20260902143519 22 107 14.5 27.4 0.00 0.00 0.00 58 1016.7
20260902142520 22 111 14.5 29.0 0.00 0.00 0.00 57 1016.6
20260902141133 22 111 14.5 27.4 0.00 0.00 0.00 56 1016.6
20260902140520 23 115 14.5 27.4 0.00 0.00 0.00 55 1016.5
20260902135520 23 119 12.9 24.1 0.00 0.00 0.00 54 1016.3
20260902134131 23 126 14.5 30.6 0.00 0.00 0.00 53 1016.6
20260902133520 23 121 14.5 30.6 0.00 0.00 0.00 54 1016.5
20260902132520 23 118 14.5 32.2 0.00 0.00 0.00 53 1016.5
20260902131133 23 133 12.9 27.4 0.00 0.00 0.00 54 1016.6
20260902130520 23 123 14.5 30.6 0.00 0.00 0.00 54 1016.7
20260902125520 23 131 14.5 24.1 0.00 0.00 0.00 53 1016.7
20260902124132 23 132 14.5 22.5 0.00 0.00 0.00 53 1016.7
20260902123520 23 124 12.9 25.7 0.00 0.00 0.00 52 1017.0
20260902122520 23 129 14.5 24.1 0.00 0.00 0.00 52 1017.1
20260902121133 24 127 12.9 22.5 0.00 0.00 0.00 54 1017.1
20260902120519 23 127 11.3 25.7 0.00 0.00 0.00 54 1017.4
20260902115519 23 102 9.7 27.4 0.00 0.00 0.00 54 1017.3
20260902114133 23 73 14.5 24.1 0.00 0.00 0.00 54 1017.5
20260902113520 22 78 12.9 30.6 0.00 0.00 0.00 54 1017.8